| time (UTC) | temp F | wind direction | speed MPH | gust MPH | rain 1hr in | rain 24hr in | rain mn in | humidity % | barometer mb |
| 20260903064531 | 79 | 208 | 7.0 | 10.0 | 0.00 | 0.00 | 0.00 | 62 | 988.0 |
| 20260903063031 | 79 | 202 | 6.0 | 10.0 | 0.00 | 0.00 | 0.00 | 64 | 988.2 |
| 20260903061531 | 79 | 178 | 5.0 | 9.0 | 0.00 | 0.00 | 0.00 | 65 | 988.3 |
| 20260903060029 | 79 | 188 | 7.0 | 10.0 | 0.00 | 0.00 | 0.00 | 66 | 988.3 |
| 20260903054529 | 80 | 176 | 8.0 | 11.0 | 0.00 | 0.00 | 0.00 | 67 | 988.3 |
| 20260903053030 | 80 | 186 | 8.0 | 15.0 | 0.00 | 0.00 | 0.00 | 67 | 988.3 |
| 20260903051527 | 81 | 178 | 8.0 | 12.0 | 0.00 | 0.00 | 0.00 | 68 | 988.3 |
| 20260903050020 | 81 | 183 | 6.0 | 10.0 | 0.00 | 0.00 | 0.00 | 68 | 988.2 |
| 20260903044517 | 81 | 188 | 6.0 | 11.0 | 0.00 | 0.00 | 0.00 | 68 | 988.1 |
| 20260903043056 | 82 | 178 | 9.0 | 11.0 | 0.00 | 0.00 | 0.00 | 68 | 988.1 |
| 20260903041609 | 82 | 159 | 5.0 | 9.0 | 0.00 | 0.00 | 0.00 | 68 | 988.2 |
| 20260903040113 | 82 | 162 | 5.0 | 11.0 | 0.00 | 0.00 | 0.00 | 68 | 988.2 |
| 20260903034557 | 83 | 138 | 8.0 | 13.0 | 0.00 | 0.00 | 0.00 | 68 | 988.3 |
| 20260903033054 | 83 | 121 | 6.0 | 13.0 | 0.00 | 0.00 | 0.00 | 67 | 988.3 |
| 20260903031553 | 83 | 125 | 4.0 | 9.0 | 0.00 | 0.00 | 0.00 | 67 | 988.0 |
| 20260903030052 | 84 | 101 | 4.0 | 12.0 | 0.00 | 0.00 | 0.00 | 67 | 987.6 |
| 20260903024552 | 84 | 109 | 4.0 | 11.0 | 0.00 | 0.00 | 0.00 | 66 | 987.4 |
| 20260903023035 | 86 | 108 | 8.0 | 13.0 | 0.00 | 0.00 | 0.00 | 64 | 987.1 |
| 20260903021534 | 88 | 101 | 8.0 | 12.0 | 0.00 | 0.00 | 0.00 | 57 | 986.8 |
| 20260903020023 | 89 | 125 | 1.0 | 7.0 | 0.00 | 0.00 | 0.00 | 51 | 986.6 |
| 20260903014522 | 91 | 136 | 3.0 | 8.0 | 0.00 | 0.00 | 0.00 | 48 | 986.3 |
| 20260903013021 | 92 | 163 | 3.0 | 7.0 | 0.00 | 0.00 | 0.00 | 48 | 986.1 |
| 20260903011521 | 93 | 170 | 1.0 | 5.0 | 0.00 | 0.00 | 0.00 | 46 | 985.9 |
| 20260903010019 | 94 | 196 | 5.0 | 8.0 | 0.00 | 0.00 | 0.00 | 46 | 985.9 |
| 20260903004519 | 94 | 71 | 0.0 | 4.0 | 0.00 | 0.00 | 0.00 | 44 | 985.8 |
| 20260903003019 | 95 | 71 | 1.0 | 4.0 | 0.00 | 0.00 | 0.00 | 43 | 985.8 |
| 20260903001518 | 96 | 80 | 4.0 | 7.0 | 0.00 | 0.00 | 0.00 | 42 | 985.6 |
| 20260902234602 | 96 | 111 | 0.0 | 4.0 | 0.00 | 0.00 | 0.00 | 42 | 985.6 |
| 20260902233042 | 96 | 112 | 0.0 | 4.0 | 0.00 | 0.00 | 0.00 | 42 | 985.7 |
| 20260902231542 | 96 | 117 | 2.0 | 7.0 | 0.00 | 0.00 | 0.00 | 43 | 985.7 |
| 20260902230023 | 96 | 113 | 0.0 | 3.0 | 0.00 | 0.00 | 0.00 | 43 | 985.6 |
| 20260902224522 | 96 | 101 | 3.0 | 7.0 | 0.00 | 0.00 | 0.00 | 43 | 985.6 |
| 20260902223010 | 96 | 278 | 0.0 | 5.0 | 0.00 | 0.00 | 0.00 | 42 | 985.8 |
| 20260902221509 | 96 | 290 | 1.0 | 9.0 | 0.00 | 0.00 | 0.00 | 43 | 985.8 |
| 20260902220008 | 96 | 206 | 4.0 | 7.0 | 0.00 | 0.00 | 0.00 | 41 | 985.8 |
| 20260902214508 | 97 | 227 | 6.0 | 9.0 | 0.00 | 0.00 | 0.00 | 41 | 985.9 |
| 20260902213006 | 97 | 185 | 3.0 | 7.0 | 0.00 | 0.00 | 0.00 | 40 | 985.9 |
| 20260902211510 | 97 | 213 | 5.0 | 6.0 | 0.00 | 0.00 | 0.00 | 40 | 985.9 |
| 20260902210003 | 97 | 229 | 4.0 | 10.0 | 0.00 | 0.00 | 0.00 | 40 | 986.1 |
| 20260902204503 | 97 | 225 | 6.0 | 9.0 | 0.00 | 0.00 | 0.00 | 40 | 986.3 |
| 20260902203043 | 96 | 184 | 4.0 | 8.0 | 0.00 | 0.00 | 0.00 | 40 | 986.5 |
| 20260902201542 | 96 | 167 | 4.0 | 8.0 | 0.00 | 0.00 | 0.00 | 41 | 986.6 |
| 20260902200030 | 96 | 133 | 2.0 | 5.0 | 0.00 | 0.00 | 0.00 | 42 | 986.9 |
| 20260902194529 | 96 | 47 | 6.0 | 11.0 | 0.00 | 0.00 | 0.00 | 42 | 987.1 |
| 20260902193025 | 97 | 76 | 1.0 | 4.0 | 0.00 | 0.00 | 0.00 | 41 | 987.3 |
| 20260902191522 | 97 | 165 | 2.0 | 12.0 | 0.00 | 0.00 | 0.00 | 40 | 987.6 |
| 20260902190031 | 97 | 248 | 3.0 | 7.0 | 0.00 | 0.00 | 0.00 | 41 | 987.8 |
| 20260902184517 | 97 | 33 | 0.0 | 3.0 | 0.00 | 0.00 | 0.00 | 42 | 988.1 |
| 20260902183015 | 98 | 320 | 1.0 | 8.0 | 0.00 | 0.00 | 0.00 | 41 | 988.3 |
| 20260902181512 | 97 | 256 | 3.0 | 9.0 | 0.00 | 0.00 | 0.00 | 42 | 988.5 |
| 20260902180052 | 96 | 228 | 2.0 | 7.0 | 0.00 | 0.00 | 0.00 | 44 | 988.9 |
| 20260902174549 | 96 | 33 | 1.0 | 5.0 | 0.00 | 0.00 | 0.00 | 44 | 989.2 |
| 20260902173037 | 96 | 245 | 4.0 | 9.0 | 0.00 | 0.00 | 0.00 | 44 | 989.4 |
| 20260902171533 | 96 | 294 | 1.0 | 8.0 | 0.00 | 0.00 | 0.00 | 44 | 989.7 |
| 20260902170006 | 94 | 233 | 2.0 | 9.0 | 0.00 | 0.00 | 0.00 | 47 | 989.9 |
| 20260902164503 | 94 | 42 | 1.0 | 9.0 | 0.00 | 0.00 | 0.00 | 47 | 990.1 |
| 20260902163042 | 93 | 277 | 3.0 | 8.0 | 0.00 | 0.00 | 0.00 | 48 | 990.2 |
| 20260902161545 | 93 | 5 | 1.0 | 4.0 | 0.00 | 0.00 | 0.00 | 49 | 990.3 |
| 20260902160024 | 91 | 28 | 4.0 | 8.0 | 0.00 | 0.00 | 0.00 | 52 | 990.3 |
| 20260902154525 | 90 | 271 | 3.0 | 7.0 | 0.00 | 0.00 | 0.00 | 53 | 990.4 |
| 20260902153021 | 88 | 44 | 1.0 | 5.0 | 0.00 | 0.00 | 0.00 | 58 | 990.4 |
| 20260902151514 | 87 | 16 | 1.0 | 5.0 | 0.00 | 0.00 | 0.00 | 62 | 990.4 |
| 20260902150009 | 86 | 355 | 0.0 | 5.0 | 0.00 | 0.00 | 0.00 | 63 | 990.5 |
| 20260902144506 | 85 | 212 | 0.0 | 5.0 | 0.00 | 0.00 | 0.00 | 65 | 990.5 |
| 20260902143002 | 83 | 135 | 0.0 | 3.0 | 0.00 | 0.00 | 0.00 | 66 | 990.6 |
| 20260902141603 | 82 | 135 | 1.0 | 4.0 | 0.00 | 0.00 | 0.00 | 67 | 990.5 |
| 20260902140038 | 82 | 138 | 0.0 | 0.0 | 0.00 | 0.00 | 0.00 | 67 | 990.6 |
| 20260902134539 | 80 | 138 | 0.0 | 0.0 | 0.00 | 0.00 | 0.00 | 66 | 990.4 |
| 20260902133028 | 78 | 138 | 1.0 | 4.0 | 0.00 | 0.00 | 0.00 | 66 | 990.4 |
| 20260902131517 | 76 | 142 | 0.0 | 0.0 | 0.00 | 0.00 | 0.00 | 62 | 990.1 |
| 20260902130016 | 75 | 142 | 0.0 | 0.0 | 0.00 | 0.00 | 0.00 | 62 | 989.9 |
| 20260902124515 | 74 | 142 | 0.0 | 0.0 | 0.00 | 0.00 | 0.00 | 62 | 989.6 |
| 20260902123013 | 74 | 142 | 0.0 | 0.0 | 0.00 | 0.00 | 0.00 | 62 | 989.5 |
| 20260902121512 | 75 | 142 | 0.0 | 0.0 | 0.00 | 0.00 | 0.00 | 63 | 989.5 |
| 20260902120010 | 75 | 142 | 0.0 | 0.0 | 0.00 | 0.00 | 0.00 | 63 | 989.5 |
| 20260902114509 | 75 | 142 | 0.0 | 0.0 | 0.00 | 0.00 | 0.00 | 64 | 989.6 |
| 20260902113110 | 76 | 142 | 0.0 | 0.0 | 0.00 | 0.00 | 0.00 | 66 | 989.4 |
| 20260902111554 | 76 | 142 | 0.0 | 0.0 | 0.00 | 0.00 | 0.00 | 65 | 989.4 |
| 20260902110055 | 76 | 142 | 0.0 | 0.0 | 0.00 | 0.00 | 0.00 | 66 | 989.4 |
| 20260902104553 | 76 | 188 | 0.0 | 0.0 | 0.00 | 0.00 | 0.00 | 67 | 989.4 |
| 20260902103050 | 77 | 193 | 0.0 | 0.0 | 0.00 | 0.00 | 0.00 | 67 | 989.3 |
| 20260902101550 | 77 | 193 | 0.0 | 0.0 | 0.00 | 0.00 | 0.00 | 67 | 989.1 |
| 20260902100049 | 77 | 193 | 0.0 | 0.0 | 0.00 | 0.00 | 0.00 | 66 | 989.2 |
| 20260902094554 | 77 | 193 | 0.0 | 0.0 | 0.00 | 0.00 | 0.00 | 66 | 989.1 |
| 20260902093047 | 77 | 193 | 0.0 | 3.0 | 0.00 | 0.00 | 0.00 | 67 | 989.1 |
| 20260902091528 | 77 | 187 | 0.0 | 0.0 | 0.00 | 0.00 | 0.00 | 68 | 989.2 |
| 20260902090025 | 78 | 146 | 0.0 | 0.0 | 0.00 | 0.00 | 0.00 | 68 | 989.3 |
| 20260902084514 | 78 | 146 | 0.0 | 0.0 | 0.00 | 0.00 | 0.00 | 69 | 989.4 |
| 20260902083006 | 78 | 146 | 0.0 | 0.0 | 0.00 | 0.00 | 0.00 | 69 | 989.5 |
| 20260902081554 | 79 | 146 | 0.0 | 0.0 | 0.00 | 0.00 | 0.00 | 69 | 989.5 |
| 20260902080048 | 79 | 146 | 0.0 | 0.0 | 0.00 | 0.00 | 0.00 | 68 | 989.6 |
| 20260902074530 | 79 | 146 | 0.0 | 0.0 | 0.00 | 0.00 | 0.00 | 68 | 989.7 |
| 20260902073029 | 80 | 146 | 0.0 | 0.0 | 0.00 | 0.00 | 0.00 | 68 | 989.9 |
| 20260902071516 | 80 | 146 | 0.0 | 0.0 | 0.00 | 0.00 | 0.00 | 67 | 990.0 |
| 20260902070016 | 81 | 146 | 0.0 | 0.0 | 0.00 | 0.00 | 0.00 | 67 | 990.0 |